Regional Weather Roundup
Issued by NWS

Home | Current Version | Previous Version | Graphics & Text | Print | Product List | Glossary On
Versions: 1 2 3 4 5 6 7 8 9 10 11 12 13 14 15 16 17 18 19 20 21 22 23 24 25 26 27 28 29 30 31 32 33 34 35 36 37 38 39 40 41 42 43 44 45 46 47 48 49 50
000
ASUS43 KFSD 251502
RWRSD

WEATHER ROUNDUP FOR SOUTH DAKOTA
NATIONAL WEATHER SERVICE SIOUX FALLS SD
900 AM CST SUN JAN 25 2015

NOTE: "FAIR" INDICATES FEW OR NO CLOUDS BELOW 12,000 FEET WITH NO
SIGNIFICANT WEATHER AND/OR OBSTRUCTIONS TO VISIBILITY.


SDZ001>005-009-010-012>017-251600-
NORTHWEST AND NORTH CENTRAL SOUTH DAKOTA

CITY           SKY/WX    TMP DP  RH WIND       PRES   REMARKS
BUFFALO          N/A     27  22  81 NW10      29.96R WCI  17
FAITH            N/A     34  27  75 NW14      30.02F WCI  25
MOBRIDGE       CLOUDY    37  34  89 NW9       29.97R
$$

SDZ012>016-024>037-041>051-057-063-072>074-251600-
SOUTHWEST AND SOUTH CENTRAL SOUTH DAKOTA

CITY           SKY/WX    TMP DP  RH WIND       PRES   REMARKS
RAPID CTY ARPT CLEAR     33  22  63 N9        30.04R WCI  25
PIERRE         CLOUDY    37  31  78 NW13      30.00R
CUSTER         CLEAR     35   8  32 NW7       30.02R WCI  29
PHILIP         CLEAR     34  27  75 NW10      30.04S WCI  26
PINE RIDGE     CLEAR     26  21  81 CALM      30.08S
WINNER         CLOUDY    38  31  76 NW18      30.00R
$$

SDZ004>011-016>023-039-040-251600-
NORTHEAST SOUTH DAKOTA

CITY           SKY/WX    TMP DP  RH WIND       PRES   REMARKS
ABERDEEN       CLOUDY    27  23  85 N7        30.01R WCI  19
WATERTOWN      CLOUDY    28  25  88 N9        29.94R WCI  19
SISSETON         N/A     22  20  92 N12       29.99R WCI  10
$$

SDZ017-020-022-023-036>040-048>070-251600-
SOUTHEAST SOUTH DAKOTA

CITY           SKY/WX    TMP DP  RH WIND       PRES   REMARKS
SIOUX FALLS    LGT SNOW  33  31  92 N13       29.95R FOG     WCI  24
HURON          CLOUDY    30  28  92 N10       29.99R WCI  21
MITCHELL       CLOUDY    32  30  92 N8        30.00R WCI  25
YANKTON        CLOUDY    32  28  86 NW15      29.98R WCI  22
$$

ABBREVIATIONS USED IN REMARKS
   TC - TEMPERATURE IN CELSIUS
  WCI - WIND CHILL INDEX
   HX - HEAT INDEX
  VSB - VISIBILITY



USA.gov is the U.S. government's official web portal to all federal, state and local government web resources and services.